Helicity
109 106 139 114 188 383 403 401 294 186 309 285 239 301 226 215 263 285 321 323 303 319 252 272 317 331 302 219 204 238 176 234 266 160 175 154 193 163 206 247 207 210 217 152
93 102 109 121 93 273 384 310 395 219 398 296 334 286 270 262 299 300 331 343 346 373 367 393 350 386 357 287 231 236 195 277 321 269 221 205 205 157 170 208 199 205 214 172
61 82 91 93 87 111 362 336 250 327 387 395 294 264 228 252 253 277 310 308 352 360 346 358 383 352 300 256 226 207 177 264 268 266 214 171 157 134 136 203 225 207 193 138
62 65 65 77 108 234 375 278 247 229 279 318 227 246 224 218 192 202 204 238 254 277 244 261 289 297 316 270 217 208 217 289 191 138 124 142 158 125 138 184 184 176 139 109
57 61 64 95 152 281 321 315 346 313 235 272 170 249 212 202 227 224 220 247 223 267 307 304 284 263 277 246 204 212 191 231 150 168 100 104 133 102 118 123 118 113 98 82
60 60 70 90 259 512 385 409 437 351 166 255 230 287 256 156 225 165 232 179 247 231 199 259 282 288 258 234 215 203 192 170 187 184 94 110 141 124 139 128 171 143 110 93
59 56 61 149 305 332 398 443 465 305 302 237 219 169 169 211 169 213 204 202 219 232 276 253 232 241 253 247 214 195 226 188 174 180 159 180 110 138 129 146 209 188 160 140
51 73 94 132 267 483 497 521 418 335 242 173 212 186 205 201 190 174 193 217 216 194 265 308 302 279 235 200 220 188 182 214 202 208 198 153 118 174 162 133 178 195 171 182
97 109 85 192 570 566 553 509 409 334 250 194 238 233 225 175 228 213 252 281 269 250 325 299 258 260 266 216 211 170 143 141 185 217 208 176 148 160 159 131 201 198 187 239
175 173 194 403 481 447 527 410 370 287 252 213 277 322 274 239 236 221 229 259 273 275 288 267 280 234 219 219 200 159 176 174 145 215 208 178 215 190 186 150 156 190 199 203
170 167 211 249 329 416 435 340 311 327 313 292 316 248 204 224 238 253 232 268 305 274 258 241 224 196 160 180 177 154 149 152 186 182 212 187 244 255 237 257 232 187 194 180
241 238 221 209 322 331 393 324 294 363 332 226 226 229 222 226 232 232 250 250 237 192 211 198 167 181 163 155 174 139 154 169 171 175 223 218 232 213 216 234 227 215 205 194
284 267 269 361 320 223 252 289 286 387 311 285 254 264 224 169 177 122 184 174 138 134 136 133 134 143 116 116 95 127 134 156 181 197 206 193 206 147 156 139 144 150 159 143
384 280 196 150 165 208 227 296 257 330 307 269 235 158 179 143 127 113 119 108 153 165 175 162 143 145 103 113 133 128 126 147 154 186 186 177 139 144 128 120 117 110 87 93
122 131 148 169 175 169 231 218 158 111 166 152 158 119 127 132 118 152 144 155 159 161 171 168 142 149 138 147 150 151 157 153 175 151 127 172 168 104 108 99 108 116 116 128
93 96 91 78 78 82 125 173 127 134 97 113 147 99 108 128 147 190 204 164 150 150 133 123 123 134 138 125 124 75 83 109 159 174 196 173 105 103 110 97 95 90 93 103
63 62 62 68 88 108 112 87 74 123 110 120 109 97 134 134 125 115 121 138 129 129 128 133 128 127 144 178 175 138 147 138 112 94 127 108 86 72 70 53 54 42 52 67
70 92 106 108 111 115 120 144 93 98 121 113 129 111 102 93 112 123 127 122 127 135 122 117 113 137 168 150 83 112 125 107 95 96 55 51 31 30 25 33 43 51 54 56
92 103 95 92 113 107 75 115 128 120 87 104 104 85 85 111 124 116 106 96 107 102 115 112 126 141 115 100 94 119 125 88 52 53 43 30 26 27 33 27 4 23 64 30
66 78 66 66 61 81 68 72 74 95 109 117 90 107 101 107 107 111 94 93 98 102 90 103 123 116 106 126 148 115 73 65 51 18 3 -0 -0 -7 -45 -48 -11 -9 -15 73
68 51 43 46 79 60 64 60 68 78 91 106 129 133 125 114 110 92 84 83 86 121 107 134 134 105 99 120 123 92 79 57 33 36 23 -44 -52 -45 -43 -13 67 80 74 79
29 34 54 51 58 61 71 72 75 90 85 94 103 109 100 77 62 82 82 104 120 116 117 147 131 110 80 90 88 80 44 1 -12 -48 -82 -85 -87 -78 -74 110 115 81 64 68
42 51 53 49 47 92 75 72 61 80 57 66 80 100 75 68 81 89 89 116 103 115 155 143 140 122 101 81 59 45 2 -60 -99 -81 -84 -64 -48 -20 81 60 75 73 69 80
54 60 77 64 70 68 55 65 67 54 64 82 87 91 76 65 84 72 97 95 109 154 160 122 112 98 64 37 -5 -71 -94 -136 -116 -74 -52 -49 -50 -33 -2 41 74 75 73 77
65 63 75 71 49 66 52 47 50 45 43 68 78 80 74 90 107 93 101 113 106 70 59 69 64 29 -0 -43 -107 -148 -140 -108 -66 -52 -42 -34 -24 -9 35 65 73 69 77 66
65 73 81 55 82 57 43 41 43 26 42 55 72 75 98 83 83 103 64 124 86 72 64 61 37 10 -22 -115 -157 -125 -105 -74 -50 -39 -34 -18 5 33 73 68 55 39 18 -2
74 71 77 71 71 40 27 28 22 31 57 55 70 87 38 87 98 81 81 96 88 93 71 42 10 -42 -103 -129 -110 -96 -69 -53 -50 -33 -14 19 42 70 73 19 7 11 -2 -18
Wind_Speed
72 69 64 60 63 23 34 49 64 31 15 52 53 65 64 62 70 58 63 64 67 70 64 68 66 66 57 42 37 45 37 46 52 46 37 33 31 31 28 37 38 35 39 42
67 65 62 57 40 29 39 51 55 32 35 64 65 64 67 64 66 62 58 62 60 60 66 70 63 62 51 43 39 41 33 46 57 53 45 37 39 35 32 35 37 38 42 39
66 62 59 57 38 32 39 48 56 47 47 55 62 67 69 69 58 58 55 59 56 60 63 58 65 61 50 44 41 37 34 42 48 55 47 38 39 35 33 34 44 46 40 46
63 61 59 54 34 32 41 54 62 52 57 61 59 57 61 64 65 52 48 58 55 58 64 56 60 59 52 46 45 41 40 55 48 49 49 51 50 48 39 40 42 48 47 45
67 63 59 53 35 29 48 58 59 53 63 57 57 58 67 63 61 54 58 55 48 46 56 53 60 49 49 54 44 42 44 57 48 56 49 48 54 50 51 50 50 54 54 56
69 67 59 53 36 35 52 49 49 54 63 63 63 67 64 62 53 54 52 48 52 52 51 45 44 44 44 43 45 44 48 48 50 62 51 55 62 51 46 47 45 49 53 52
70 67 60 43 39 42 46 48 47 60 71 62 66 61 56 55 53 57 50 51 49 44 33 37 42 44 47 47 44 39 45 46 49 58 48 63 50 37 37 34 35 41 43 53
68 60 54 43 40 38 44 41 47 55 69 59 60 58 56 50 50 54 52 45 38 27 39 47 52 54 58 54 45 40 36 38 46 52 52 60 56 42 36 34 39 45 46 49
57 50 45 32 30 27 33 39 37 47 58 64 53 52 51 56 54 53 47 39 30 33 40 43 54 56 54 51 43 37 31 33 39 44 56 60 42 33 37 28 43 44 42 42
39 34 22 23 25 27 32 39 36 45 55 48 43 49 48 44 44 50 42 35 35 38 42 48 49 53 42 50 47 38 33 36 43 48 55 52 43 40 35 44 42 34 39 40
27 23 21 23 24 23 33 38 32 40 48 44 40 38 42 41 40 49 37 38 41 41 44 45 44 45 40 44 41 39 37 39 42 41 50 59 43 37 42 37 33 30 38 41
18 18 17 18 14 16 23 33 25 28 37 37 35 34 36 37 35 36 35 41 36 31 35 38 38 41 40 43 50 35 46 36 40 37 42 26 37 33 31 32 35 38 47 49
9 11 10 12 10 10 21 22 15 26 30 33 34 36 34 32 35 33 36 38 32 30 30 33 38 45 38 44 46 43 38 34 42 43 40 35 41 37 32 42 46 51 55 58
2 2 2 3 5 5 12 19 19 28 29 40 39 32 33 36 33 31 31 26 26 25 31 40 41 46 36 46 46 44 40 37 44 49 47 48 44 41 55 60 62 63 63 64
10 6 6 7 5 7 8 14 21 22 26 35 32 28 34 34 30 29 29 24 25 27 34 38 41 39 42 45 45 49 42 48 55 61 50 57 58 62 64 66 69 69 70 72
11 11 9 12 12 8 11 23 26 26 25 30 36 33 33 32 27 25 27 28 29 32 34 36 36 37 39 44 48 44 42 42 46 57 54 54 63 60 61 64 66 67 67 68
18 18 15 11 11 16 23 26 28 25 25 29 32 34 31 28 28 29 31 30 31 32 34 38 39 39 38 47 55 51 49 55 59 54 55 59 50 56 65 65 68 69 69 69
25 23 20 17 17 17 26 32 25 21 23 30 31 33 28 28 29 29 32 31 33 36 36 36 39 39 42 52 48 46 45 47 47 46 49 50 54 63 65 65 69 73 77 80
29 25 20 20 25 26 24 29 25 25 25 27 30 24 29 29 28 28 31 34 39 38 39 40 35 40 45 45 44 43 44 49 55 59 59 58 56 60 66 73 86 88 80 85
22 22 26 25 25 26 25 26 26 27 32 30 29 27 28 26 28 32 34 37 37 43 39 34 42 49 45 43 40 43 51 55 56 59 62 64 74 85 90 93 95 94 55 58
23 27 27 21 26 24 27 26 27 32 30 31 27 25 24 31 31 32 35 37 39 47 43 43 48 50 40 38 42 45 51 54 55 52 60 81 85 86 91 94 72 59 49 44
24 24 21 23 27 28 27 29 32 32 30 29 23 24 27 28 32 34 37 41 40 48 40 45 51 41 35 41 49 54 57 59 66 73 80 82 83 82 81 46 56 35 28 39
25 27 27 30 33 29 29 28 31 30 26 22 21 27 31 32 35 37 39 42 44 42 44 48 43 35 36 47 56 62 63 70 73 79 83 86 89 89 63 31 28 42 44 38
29 30 30 32 32 31 30 28 26 27 25 20 25 31 35 37 40 38 43 41 41 46 49 47 32 40 48 56 61 68 74 72 78 82 84 85 84 80 57 26 31 40 45 56
31 32 33 32 29 28 26 26 27 26 23 27 32 37 38 40 40 40 41 43 44 40 42 35 37 52 58 69 74 72 71 74 78 81 83 80 80 74 62 58 54 41 39 40
32 33 31 26 25 25 27 27 27 27 27 31 37 38 42 41 38 39 40 41 43 41 36 40 56 65 72 76 70 69 69 73 77 79 75 74 70 52 23 34 42 43 46 44
33 32 28 26 27 26 28 27 29 28 32 37 37 41 40 36 41 42 36 41 44 41 52 60 63 76 76 70 67 66 68 71 72 71 67 57 47 21 17 31 46 55 30 38
Wind_Direction
290 291 292 294 296 270 288 297 296 297 293 298 299 296 301 305 303 302 297 301 299 299 301 301 300 300 304 311 312 308 310 315 310 311 324 325 320 314 309 311 317 321 322 317
290 291 293 294 290 263 289 290 296 291 290 291 290 298 301 302 304 303 303 300 301 306 300 301 302 302 309 307 302 307 307 307 308 313 314 315 311 309 309 312 316 307 312 323
290 290 291 292 278 260 286 288 290 292 284 293 294 297 299 298 306 303 301 303 304 304 300 300 303 304 310 310 305 307 305 301 301 301 313 323 315 311 305 301 303 306 294 306
289 288 288 290 273 256 278 281 285 285 285 284 287 293 299 301 300 303 305 305 297 300 300 300 295 299 304 308 307 304 299 295 298 298 301 303 302 301 300 298 300 300 308 306
287 288 285 284 265 251 275 278 281 284 288 290 283 286 294 292 297 301 302 301 309 305 301 299 304 302 298 297 301 298 301 297 299 299 300 301 298 296 296 293 294 295 298 298
285 286 282 281 247 249 277 282 286 284 284 285 283 287 289 293 293 298 300 301 302 303 304 309 311 310 309 305 301 297 296 297 300 298 305 305 300 296 290 294 299 301 298 307
282 283 281 269 240 239 276 280 282 282 281 280 282 289 288 289 293 294 302 303 300 311 323 322 317 313 308 304 299 301 298 298 298 299 305 298 311 323 321 317 319 318 314 313
281 280 279 266 236 246 271 277 280 282 283 281 285 285 288 292 294 293 298 304 312 320 319 313 307 306 305 302 296 288 292 294 298 296 297 305 307 315 318 313 316 325 320 321
277 277 277 246 227 250 270 280 287 286 285 282 288 283 284 287 289 295 300 308 311 314 313 310 303 301 306 309 313 312 283 289 288 297 299 303 317 329 333 330 306 325 330 330
270 268 249 222 229 255 269 282 286 287 285 289 288 283 285 293 292 295 302 301 302 307 302 299 300 300 308 304 304 306 305 293 279 289 295 305 314 319 323 305 314 330 335 337
252 242 230 224 233 247 276 283 289 288 287 288 293 293 291 292 291 290 300 300 302 302 295 299 302 303 303 303 306 307 301 300 299 291 295 295 321 318 306 318 326 328 329 330
230 232 241 237 227 267 285 282 290 301 293 295 300 301 302 300 302 296 294 299 309 303 302 301 307 304 306 304 302 311 301 305 308 303 305 321 333 331 329 330 324 319 315 314
233 251 245 237 243 273 293 282 289 300 299 301 299 298 309 314 309 306 296 298 304 304 309 305 303 300 307 303 302 305 310 313 305 306 309 307 318 322 324 320 315 311 309 306
259 267 223 198 187 267 296 290 285 294 303 292 297 314 310 312 315 312 309 311 310 309 305 300 300 298 307 302 305 304 309 310 306 303 306 311 314 313 313 310 308 305 303 301
100 109 111 103 67 60 3 330 309 306 301 301 302 310 315 318 319 315 315 309 304 303 300 301 299 304 304 306 306 301 304 302 300 302 308 307 307 310 310 308 307 304 302 299
76 77 76 80 80 43 347 310 314 311 309 306 299 310 311 315 323 323 317 312 310 305 304 304 307 310 307 307 306 315 314 313 312 309 313 310 311 311 313 312 312 310 306 302
72 74 67 34 2 328 313 312 308 309 311 306 307 307 314 315 312 315 311 317 312 312 309 305 307 308 310 308 305 312 313 313 312 312 314 312 313 314 316 315 313 313 310 306
71 68 57 40 29 354 325 328 328 333 321 312 308 307 309 317 310 309 313 313 314 313 311 314 312 316 314 310 315 321 324 324 323 326 323 318 317 316 317 318 316 313 309 305
68 54 29 348 326 322 324 325 334 343 323 310 308 311 307 311 313 320 319 317 311 318 312 313 318 314 311 317 319 323 327 327 324 323 323 322 321 320 318 315 303 306 309 295
40 354 336 337 320 303 315 323 324 326 311 317 313 316 313 321 319 318 321 322 319 314 319 326 316 313 314 320 326 327 325 326 327 324 322 322 315 304 291 290 295 290 261 314
321 305 310 317 295 314 322 325 321 312 317 318 321 323 325 328 321 323 326 323 323 316 320 318 318 319 325 333 332 332 330 328 327 326 318 292 283 281 284 291 318 320 316 313
358 25 5 334 327 331 332 324 319 320 320 327 329 332 337 339 338 330 328 322 325 316 327 321 318 326 333 335 331 328 328 326 318 299 289 284 281 280 277 321 323 302 297 315
360 350 347 335 327 334 333 328 327 328 337 340 340 333 335 340 339 332 329 322 318 328 321 319 323 333 336 333 330 324 323 305 287 289 294 298 297 300 325 307 306 325 324 320
348 342 335 334 335 336 336 337 339 340 342 346 340 334 332 332 330 331 324 324 326 320 318 320 331 334 332 330 326 318 295 288 292 294 296 296 292 287 273 290 327 330 328 325
350 345 336 338 345 346 351 350 348 348 351 341 335 333 330 328 326 329 327 324 322 324 326 334 334 331 329 320 307 291 286 288 292 298 297 293 293 286 287 333 335 338 338 337
349 347 346 353 354 352 348 348 348 348 347 343 336 331 328 325 329 326 321 324 320 327 331 330 325 323 317 299 286 283 283 288 292 294 291 290 287 275 334 347 348 350 349 349
347 346 354 352 351 349 345 346 342 346 338 329 332 326 325 334 325 322 325 320 323 326 320 319 320 308 290 284 281 282 285 289 289 289 287 278 272 275 351 5 357 338 9 266